Date String (YYYY-MM-DD hh:mm:ss) UTC,Instrument flags,Ambient pressure (hPa),Sample flow (lpm),Bypass flow (lpm),Sample temperature (°C),Ambient temperature (°C),ASC tube jacket temperature (°C),LED temperature (°C),Box temperature (°C),Sample RH (%),Span deviation,Mass concentration (μg/m³),Mass concentration (μg/m³),Mass concentration (μg/m³)
DateTimeUTC,F1_M11,P_M11,Q1_M11,Q2_M11,T1_M11,T2_M11,T3_M11,T4_M11,T5_M11,U1_M11,ZSPAN_M11,X0_M11,X2_M11,X1_M11
2022-04-29 07:00:00,,0814.1,4.99,0.00,28.9,28.5,00.0,37.8,30.8,10.1,0001.7,0021.70,0008.24,0005.36
2022-04-29 07:01:00,,0814.2,5.00,0.00,28.9,28.5,00.0,37.8,30.8,10.1,0001.8,0022.45,0008.23,0005.34
2022-04-29 07:02:00,,0814.2,5.01,0.00,29.0,28.4,00.0,37.8,30.8,10.2,0001.3,0022.48,0008.25,0005.35
2022-04-29 07:03:00,,0814.2,4.98,0.00,29.0,28.4,00.0,37.9,30.7,10.4,0002.1,0023.29,0008.29,0005.35
2022-04-29 07:04:00,,0814.5,5.02,0.00,29.0,28.5,00.0,37.9,30.7,10.5,0002.8,0023.08,0008.33,0005.35
2022-04-29 07:05:00,,0814.2,4.99,0.00,29.0,28.5,00.0,37.9,30.8,10.3,0002.9,0022.52,0008.28,0005.35
2022-04-29 07:06:00,,0814.2,5.00,0.00,29.0,28.5,00.0,37.9,30.8,10.2,0003.1,0022.24,0008.32,0005.37
2022-04-29 07:07:00,,0814.2,5.01,0.00,29.0,28.5,00.0,37.9,30.8,10.2,0003.5,0022.74,0008.33,0005.38
2022-04-29 07:08:00,,0814.2,4.99,0.00,29.0,28.6,00.0,37.9,30.9,10.3,0003.8,0022.87,0008.36,0005.39
2022-04-29 07:09:00,,0814.2,5.01,0.00,29.1,28.6,00.0,37.9,30.9,10.3,0003.5,0022.26,0008.26,0005.37
2022-04-29 07:10:00,,0814.1,4.99,0.00,29.1,28.6,00.0,37.9,30.9,10.2,0003.3,0021.67,0008.18,0005.37
2022-04-29 07:11:00,,0814.2,5.01,0.00,29.1,28.6,00.0,38.0,30.9,10.2,0002.4,0021.00,0008.05,0005.36
2022-04-29 07:12:00,,0814.1,5.00,0.00,29.1,28.6,00.0,38.0,30.9,10.2,0001.8,0019.53,0008.02,0005.38
2022-04-29 07:13:00,,0814.1,5.00,0.00,29.1,28.6,00.0,38.0,30.9,10.1,0001.7,0019.23,0007.96,0005.38
2022-04-29 07:14:00,,0814.1,5.02,0.00,29.1,28.6,00.0,38.0,30.9,10.0,0001.3,0018.55,0007.95,0005.39
2022-04-29 07:15:00,,0814.1,4.98,0.00,29.1,28.6,00.0,38.0,30.9,10.0,0001.7,0018.33,0007.89,0005.39
2022-04-29 07:16:00,,0814.1,5.01,0.00,29.1,28.5,00.0,38.0,30.9,10.0,0000.2,0019.07,0007.95,0005.39
2022-04-29 07:17:00,,0814.1,5.01,0.00,29.1,28.5,00.0,38.0,30.9,09.9,0000.0,0019.35,0008.01,0005.39
2022-04-29 07:18:00,,0814.1,4.99,0.00,29.1,28.5,00.0,38.0,30.9,09.8,0000.0,0018.80,0007.99,0005.36
2022-04-29 07:19:00,,0814.1,5.01,0.00,29.1,28.5,00.0,38.0,30.9,09.7,0000.0,0017.64,0007.97,0005.33
2022-04-29 07:20:00,,0814.1,5.01,0.00,29.1,28.5,00.0,38.0,30.9,09.7,0000.0,0018.08,0007.98,0005.32
2022-04-29 07:21:00,,0814.0,4.99,0.00,29.1,28.5,00.0,38.1,30.9,09.7,0000.0,0018.67,0007.96,0005.29
2022-04-29 07:22:00,,0814.0,5.00,0.00,29.1,28.5,00.0,38.0,30.9,09.7,0000.0,0019.16,0007.99,0005.29
2022-04-29 07:23:00,,0814.0,5.01,0.00,29.1,28.6,00.0,38.1,30.9,09.6,0000.0,0019.75,0007.97,0005.29
2022-04-29 07:24:00,,0814.0,4.98,0.00,29.1,28.6,00.0,38.1,30.9,09.5,0000.0,0019.76,0007.96,0005.28
2022-04-29 07:25:00,,0814.0,5.00,0.00,29.2,28.6,00.0,38.1,31.0,09.4,0002.2,0019.35,0007.93,0005.26
2022-04-29 07:26:00,,0813.9,5.01,0.00,29.2,28.6,00.0,38.1,31.0,09.5,0001.4,0019.81,0007.96,0005.26
2022-04-29 07:27:00,,0814.0,4.99,0.00,29.2,28.6,00.0,38.1,31.0,09.4,0002.8,0019.12,0007.92,0005.26
2022-04-29 07:28:00,,0814.3,5.02,0.00,29.2,28.6,00.0,38.1,31.0,09.5,0002.5,0018.55,0007.86,0005.27
2022-04-29 07:29:00,,0813.8,4.99,0.00,29.2,28.6,00.0,38.1,31.0,09.6,0002.4,0018.28,0007.95,0005.30
2022-04-29 07:30:00,,0813.8,5.00,0.00,29.2,28.7,00.0,38.1,31.0,09.8,0002.4,0018.54,0008.01,0005.31
2022-04-29 07:31:00,,0813.7,5.00,0.00,29.3,28.7,00.0,38.1,31.1,09.8,0002.1,0018.96,0008.00,0005.32
2022-04-29 07:32:00,,0813.7,4.99,0.00,29.3,28.7,00.0,38.1,31.1,09.8,0001.9,0018.80,0008.03,0005.35
2022-04-29 07:33:00,,0813.7,5.01,0.00,29.3,28.7,00.0,38.2,31.1,09.7,0001.9,0019.26,0008.15,0005.37
2022-04-29 07:34:00,,0813.7,4.99,0.00,29.3,28.7,00.0,38.2,31.1,09.7,0002.5,0018.87,0008.18,0005.37
2022-04-29 07:35:00,,0813.7,4.99,0.00,29.3,28.8,00.0,38.2,31.1,09.8,0002.2,0019.28,0008.26,0005.39
2022-04-29 07:36:00,,0813.7,5.02,0.00,29.3,28.8,00.0,38.2,31.1,09.8,0002.1,0019.80,0008.31,0005.41
2022-04-29 07:37:00,,0813.7,4.99,0.00,29.3,28.8,00.0,38.2,31.1,09.7,0002.5,0019.49,0008.35,0005.43
2022-04-29 07:38:00,,0813.8,4.99,0.00,29.3,28.7,00.0,38.2,31.1,09.7,0002.4,0019.38,0008.30,0005.44
2022-04-29 07:39:00,,0813.7,5.02,0.00,29.3,28.6,00.0,38.2,31.0,09.6,0002.6,0020.31,0008.26,0005.44
2022-04-29 07:40:00,,0813.7,4.99,0.00,29.3,28.6,00.0,38.2,31.0,09.6,0002.6,0020.00,0008.13,0005.43
2022-04-29 07:41:00,,0813.6,5.00,0.00,29.2,28.6,00.0,38.2,31.0,09.7,0002.5,0020.23,0007.98,0005.43
2022-04-29 07:42:00,,0813.7,5.01,0.00,29.2,28.6,00.0,38.2,31.0,09.7,0002.7,0020.39,0007.98,0005.42
2022-04-29 07:43:00,,0813.6,4.98,0.00,29.2,28.6,00.0,38.2,31.0,09.7,0003.0,0019.93,0007.99,0005.44
2022-04-29 07:44:00,,0813.8,4.99,0.00,29.2,28.4,00.0,38.2,30.9,09.5,0003.3,0020.11,0007.91,0005.43
2022-04-29 07:45:00,,0813.8,5.01,0.00,29.2,28.3,00.0,38.2,30.9,09.2,0003.2,0020.41,0007.86,0005.41
2022-04-29 07:46:00,,0814.1,4.99,0.00,29.1,28.2,00.0,38.2,30.8,09.2,0003.4,0020.11,0007.80,0005.39
2022-04-29 07:47:00,,0814.1,5.01,0.00,29.1,28.1,00.0,38.1,30.8,09.3,0003.4,0019.84,0007.74,0005.37
2022-04-29 07:48:00,,0814.1,4.99,0.00,29.1,28.1,00.0,38.1,30.7,09.5,0003.3,0019.94,0007.68,0005.36
2022-04-29 07:49:00,,0814.2,5.01,0.00,29.0,28.2,00.0,38.1,30.7,09.6,0003.1,0019.95,0007.72,0005.34
2022-04-29 07:50:00,,0814.1,5.00,0.00,29.0,28.3,00.0,38.1,30.7,09.6,0002.1,0019.17,0007.72,0005.32
2022-04-29 07:51:00,,0813.8,4.99,0.00,29.0,28.3,00.0,38.1,30.8,09.7,0002.7,0019.47,0007.71,0005.30
2022-04-29 07:52:00,,0813.7,5.02,0.00,29.0,28.4,00.0,38.1,30.8,09.6,0003.6,0019.31,0007.78,0005.29
2022-04-29 07:53:00,,0813.6,4.98,0.00,29.1,28.4,00.0,38.1,30.8,09.6,0003.7,0018.68,0007.77,0005.28
2022-04-29 07:54:00,,0813.8,5.00,0.00,29.1,28.5,00.0,38.1,30.9,09.7,0003.7,0019.08,0007.83,0005.26
2022-04-29 07:55:00,,0813.5,5.01,0.00,29.1,28.5,00.0,38.1,30.9,09.8,0003.3,0019.52,0007.93,0005.25
2022-04-29 07:56:00,,0813.5,4.98,0.00,29.1,28.6,00.0,38.1,31.0,09.8,0003.0,0019.19,0007.95,0005.25
2022-04-29 07:57:00,,0813.5,5.02,0.00,29.2,28.6,00.0,38.1,31.0,09.8,0003.1,0019.52,0008.02,0005.23
2022-04-29 07:58:00,,0813.5,5.00,0.00,29.2,28.7,00.0,38.1,31.1,09.8,0002.5,0019.23,0008.00,0005.24
2022-04-29 07:59:00,,0813.4,4.99,0.00,29.2,28.7,00.0,38.1,31.1,09.7,0002.2,0019.13,0008.03,0005.24
